Vertical_Velocity
-0 -4 -0 -2 2 1 2 -3 -13 -2 -3 -4 4 6 -1 -5 -1 3 -2 2 -1 3 -2 -2 -0 -1 -1 -1 -1 -0 -2 -3 -1 -1 -4 -2 -1 1 3 -3 -2 -1 1 -0 1 0 2 4 4
-3 -5 -1 -1 -1 3 2 2 -11 -6 0 4 1 -1 0 -4 1 1 5 -0 -6 -1 3 -4 -1 -0 0 -2 -0 0 -1 -2 -1 -2 -3 -0 2 1 1 -3 -1 1 2 0 -2 1 2 1 0
-3 -1 -4 -0 2 7 3 -5 -10 -1 5 -1 1 5 -1 0 -13 4 1 -1 -9 -8 3 2 -2 -3 -2 -2 -1 -2 -1 -1 0 -1 -2 -3 -1 -2 -2 -2 0 -0 0 1 -2 0 -2 -5 -2
-1 0 -4 0 4 -4 -9 -7 0 -2 2 1 -5 -1 -2 -2 -2 4 -3 -3 -3 5 -1 0 -2 -2 2 1 -3 -4 -3 0 -2 2 3 3 -5 5 -1 -1 2 1 -1 3 -1 2 3 3 1
-2 -0 -2 -2 2 -0 -6 -3 1 -1 3 2 -3 -3 -1 -6 4 4 -2 1 -5 0 2 1 -2 -2 -1 -1 -4 -4 -1 -2 -1 12 88 -3 17 -2 3 3 -0 0 -1 0 1 -0 -4 2 -1
-1 -3 -3 2 -2 -1 -8 4 -4 -4 7 2 -1 -3 -6 3 0 2 -3 -1 -2 -6 2 1 -2 -0 -1 1 -1 -0 -1 -5 -5 5 19 29 -3 2 -2 3 -3 4 -1 -1 1 2 2 -3 1
0 -5 1 1 4 3 7 -1 -6 2 3 -3 -0 0 -11 -6 6 -1 -2 1 -1 -1 0 1 -1 -1 0 0 3 -1 -1 -5 1 -3 26 18 20 55 -2 -3 -0 -1 -1 2 -0 -1 -3 1 -5
1 -4 3 -2 4 -3 -7 -5 -4 -2 0 -2 -4 -5 2 3 6 -0 -1 3 -2 0 -3 -2 1 -1 1 -1 12 0 8 1 -10 4 -3 12 -6 81 3 -0 2 2 -1 2 1 1 5 -4 1
-7 -5 2 5 -2 0 -9 -7 -4 -3 0 3 -0 -0 1 -2 0 0 -9 -1 1 2 -6 3 -1 -5 -0 0 -1 0 -6 7 3 5 3 -5 18 29 19 -3 2 -1 -1 -1 3 -1 1 1 -1
-8 -8 8 -0 1 -6 1 -2 -2 -4 -3 -3 -2 -11 -2 2 -2 -0 -0 0 2 6 3 -1 1 1 4 -7 -2 5 6 -1 0 -0 -3 -7 11 5 8 -1 -1 -2 -3 4 1 -5 2 -0 -3
1 -2 -0 4 2 -3 -6 1 5 -2 4 1 1 2 -10 -2 -0 2 -3 0 -4 2 3 1 1 1 -1 2 1 -3 -2 -3 -1 1 7 0 -10 -5 -7 0 -0 3 9 -0 1 4 2 -4 -2
-13 -2 -1 6 2 0 -2 -3 1 -0 3 -1 0 4 1 -6 1 -2 -0 -6 -3 0 2 1 1 2 0 2 -3 -3 2 1 -0 -5 -2 1 -20 7 -0 3 -4 -0 -3 -4 4 0 -2 -0 -0
-10 5 -4 -2 6 1 -2 -2 -2 1 4 -2 1 3 4 5 -3 -4 2 -7 5 -5 -1 3 -1 3 2 2 -1 -2 0 -0 -3 4 -1 -2 6 2 -1 -1 -2 1 -1 -2 1 1 1 1 -2
-2 -5 3 -3 -3 2 1 -1 -12 13 4 -0 -0 1 2 -2 -3 1 -0 -2 -3 -3 -2 -3 1 1 -0 2 -2 2 -3 -2 3 0 8 16 -4 2 -4 -1 -1 -2 0 -0 2 1 0 -1 -1
-5 -12 -5 2 4 8 -0 -6 -3 0 2 -4 1 1 -0 2 -8 8 1 0 3 -2 -2 -2 1 1 4 1 1 5 -7 -1 4 9 10 3 -5 -3 -5 -0 0 -2 2 2 -3 1 1 -0 0
-8 -12 -8 23 -4 13 -3 12 7 5 -2 -2 1 1 -0 2 -3 3 -2 2 1 1 -4 -3 -4 1 0 3 4 -0 2 -4 12 16 -2 16 15 -1 -2 6 -4 -3 4 1 2 2 -1 -0 -0
-0 -3 -14 3 -1 4 -6 6 5 8 -9 -5 -1 -3 3 1 3 4 -2 -2 -1 -0 -2 -3 -1 -2 1 -1 2 2 1 -2 -4 -4 -1 18 8 -3 2 2 -2 -1 4 0 0 2 -2 0 1
6 -12 -10 -11 31 6 4 -0 -0 5 -6 -5 -4 -2 0 -0 1 2 1 -0 -3 3 -2 -5 -0 -3 1 -2 -1 -0 1 -1 -3 -3 7 3 -4 -7 -1 -1 -4 -0 -1 0 -2 0 -3 -2 1
-3 -7 -9 -0 20 -9 -5 -11 1 -4 4 -8 -2 -4 -1 0 -4 4 1 -1 -2 -2 -0 -3 -1 -3 -0 1 0 1 -0 -2 1 -3 -5 12 5 0 0 -1 1 1 1 -1 -3 -3 -3 -3 2
-3 -3 4 -0 11 22 0 -12 -4 -5 -6 3 1 -2 -4 -2 -4 6 0 2 -3 -1 1 1 -1 -1 -3 -0 2 -1 -2 1 -2 1 2 -2 7 9 6 1 -2 0 3 -1 1 -2 -0 3 -0
2 -2 3 -6 7 -3 3 -7 2 4 -5 1 1 1 -3 0 -6 2 1 2 -2 -2 0 2 -1 -1 -6 -1 -1 -2 -1 1 -6 -6 -5 -2 4 4 14 -1 3 2 -6 1 1 1 1 1 -2
-7 1 -2 1 -7 -18 18 -43 -7 7 1 -7 -5 -2 -2 4 -8 4 -0 0 -1 -1 -0 -0 3 0 -2 -3 -1 1 -5 -1 -3 -3 1 2 4 3 7 6 8 3 0 1 2 -4 -6 1 1
-1 -0 -0 -1 1 -12 19 -51 31 3 1 2 -0 1 -2 11 -2 5 1 0 -0 -1 1 -1 0 1 2 -2 -3 -6 3 -0 1 -8 -3 6 -2 4 8 6 8 8 13 10 4 -2 0 2 0
4 -1 -1 3 -3 -30 11 -22 18 9 13 -14 1 -0 -7 7 1 11 0 1 -1 -1 2 -2 0 1 2 3 2 3 -1 3 4 4 -6 -9 0 1 0 -4 -1 0 1 3 4 -1 0 -2 2
3 -1 -4 -15 -18 5 15 -36 18 3 4 3 1 -6 -10 5 2 6 3 0 -2 -1 1 -4 -2 -1 -0 0 -1 2 2 2 2 -1 1 -1 -1 -3 -0 0 -2 -3 0 8 3 0 5 -4 1
-3 10 -5 -6 -3 12 2 -21 17 1 -19 32 15 16 -4 4 2 2 2 0 -2 1 1 -2 -2 -0 -2 0 -0 -4 -4 -2 1 -2 4 5 -1 -7 -1 -2 -2 5 8 5 -2 -5 -3 0 1
12 -29 14 5 4 0 -2 -3 7 9 -9 -31 -12 9 1 6 7 -0 5 2 -1 1 -1 -3 -1 -1 -1 -1 -0 1 1 -2 -3 -1 -0 -1 0 2 2 2 2 1 -5 -1 -1 1 4 1 0
4 12 -0 -5 -14 -6 0 0 -1 5 10 6 10 -2 -3 -6 5 -1 7 4 1 1 3 -1 -2 -1 -0 0 -1 1 2 3 2 -2 -1 1 -1 -2 2 0 3 2 2 1 1 3 1 1 1
-4 -7 -5 -4 5 5 -1 -1 6 31 3 11 1 8 2 12 2 3 5 4 2 2 1 1 -2 -3 -1 -0 0 -1 -0 1 1 -0 -3 0 2 1 1 0 -1 -0 -0 0 -1 -0 2 2 1
-7 7 5 13 3 -2 -6 4 -2 8 3 -0 30 8 5 -3 -5 7 2 3 3 1 1 2 2 -2 -2 -1 0 -1 -1 -2 -0 4 3 1 -1 -1 0 0 -0 0 2 -0 2 -1 0 1 1
Height
5829 5829 5829 5830 5832 5830 5826 5822 5821 5819 5819 5819 5821 5820 5816 5812 5808 5808 5805 5805 5805 5801 5800 5798 5798 5797 5796 5796 5795 5795 5797 5797 5797 5798 5801 5804 5807 5808 5811 5814 5818 5821 5825 5828 5830 5831 5832 5835 5837
5824 5824 5826 5827 5827 5826 5822 5818 5817 5817 5816 5816 5816 5814 5812 5810 5803 5802 5802 5799 5799 5797 5795 5793 5792 5791 5790 5791 5792 5792 5791 5791 5792 5793 5794 5797 5800 5804 5807 5811 5814 5817 5820 5823 5826 5828 5830 5832 5835
5821 5821 5822 5823 5823 5823 5819 5813 5816 5814 5814 5814 5813 5811 5805 5802 5797 5798 5794 5792 5790 5792 5791 5788 5786 5785 5785 5785 5786 5786 5788 5787 5788 5789 5789 5792 5796 5801 5806 5809 5811 5814 5816 5819 5822 5826 5829 5829 5833
5817 5818 5818 5819 5819 5816 5815 5813 5812 5813 5812 5806 5805 5807 5802 5795 5793 5795 5790 5788 5787 5785 5785 5782 5779 5779 5779 5779 5779 5780 5781 5781 5782 5783 5783 5787 5789 5795 5800 5805 5807 5811 5814 5816 5819 5822 5825 5829 5833
5814 5814 5814 5814 5814 5812 5809 5810 5809 5809 5809 5806 5799 5798 5796 5790 5792 5790 5787 5786 5781 5778 5777 5776 5772 5772 5773 5773 5773 5773 5774 5774 5774 5774 5770 5777 5783 5788 5793 5799 5802 5808 5811 5813 5815 5818 5821 5825 5828
5809 5808 5810 5811 5810 5808 5804 5805 5803 5805 5806 5802 5798 5795 5790 5787 5787 5785 5783 5781 5777 5773 5771 5768 5766 5765 5766 5765 5765 5765 5766 5766 5765 5766 5772 5770 5779 5782 5790 5795 5798 5801 5809 5811 5812 5814 5817 5821 5824
5804 5801 5805 5805 5806 5805 5805 5801 5799 5800 5801 5797 5794 5792 5787 5782 5782 5779 5779 5777 5773 5768 5764 5762 5759 5759 5758 5758 5757 5757 5758 5756 5760 5760 5766 5766 5778 5780 5784 5789 5794 5797 5802 5807 5808 5810 5814 5817 5820
5798 5795 5800 5801 5801 5800 5797 5795 5793 5794 5795 5793 5789 5785 5787 5783 5781 5776 5775 5772 5768 5764 5760 5756 5754 5754 5753 5750 5747 5748 5750 5750 5752 5755 5759 5763 5769 5768 5778 5785 5792 5792 5796 5801 5804 5807 5811 5812 5817
5791 5790 5796 5796 5792 5793 5790 5791 5789 5788 5789 5789 5786 5781 5778 5776 5777 5773 5770 5768 5765 5760 5756 5754 5750 5748 5745 5741 5740 5740 5743 5744 5746 5750 5749 5753 5757 5769 5774 5780 5786 5789 5791 5797 5801 5803 5806 5811 5816
5785 5784 5791 5789 5788 5784 5786 5786 5785 5783 5783 5783 5780 5776 5773 5770 5770 5769 5766 5764 5763 5760 5753 5750 5748 5743 5741 5738 5736 5734 5733 5736 5737 5740 5746 5744 5754 5761 5767 5777 5783 5786 5788 5793 5797 5800 5806 5808 5813
5779 5779 5784 5785 5782 5779 5779 5782 5783 5780 5782 5779 5777 5775 5771 5767 5763 5763 5761 5759 5757 5756 5750 5747 5744 5740 5738 5735 5734 5732 5729 5730 5728 5731 5737 5743 5752 5758 5766 5774 5777 5783 5787 5791 5794 5801 5803 5806 5810
5769 5773 5775 5777 5777 5774 5774 5775 5777 5777 5778 5774 5772 5771 5769 5767 5762 5759 5756 5755 5751 5750 5745 5742 5740 5737 5734 5732 5731 5727 5726 5722 5721 5725 5731 5743 5747 5754 5762 5769 5773 5781 5787 5791 5795 5798 5801 5804 5807
5762 5768 5767 5769 5770 5768 5769 5769 5769 5771 5771 5769 5768 5767 5765 5765 5758 5756 5752 5751 5745 5746 5742 5736 5733 5733 5729 5726 5724 5724 5722 5715 5714 5718 5726 5737 5747 5754 5758 5764 5769 5776 5782 5787 5792 5795 5797 5801 5802
5757 5757 5758 5758 5761 5764 5763 5765 5762 5769 5765 5764 5763 5761 5760 5759 5754 5754 5750 5749 5743 5739 5737 5732 5727 5726 5726 5724 5721 5718 5716 5713 5717 5721 5728 5738 5745 5752 5756 5759 5766 5773 5778 5783 5787 5790 5794 5797 5799
5747 5747 5749 5754 5758 5755 5757 5755 5760 5760 5758 5757 5757 5756 5755 5754 5751 5752 5747 5746 5742 5737 5734 5730 5725 5721 5721 5721 5719 5718 5718 5717 5722 5727 5730 5737 5742 5748 5752 5755 5765 5767 5774 5781 5783 5787 5790 5793 5795
5736 5738 5742 5749 5749 5751 5749 5744 5755 5754 5750 5752 5752 5750 5749 5750 5745 5745 5741 5742 5738 5735 5730 5726 5723 5720 5718 5718 5718 5718 5720 5718 5720 5722 5730 5729 5740 5745 5748 5753 5761 5766 5772 5778 5780 5783 5787 5789 5791
5726 5730 5734 5739 5742 5743 5741 5738 5746 5748 5741 5746 5745 5745 5745 5745 5743 5741 5737 5737 5734 5731 5728 5723 5721 5719 5717 5718 5718 5717 5718 5720 5720 5724 5728 5729 5740 5746 5745 5751 5758 5764 5770 5774 5778 5780 5783 5785 5787
5720 5722 5724 5728 5736 5732 5732 5732 5733 5740 5736 5739 5741 5741 5739 5737 5740 5737 5734 5734 5731 5729 5726 5721 5719 5717 5717 5716 5717 5717 5717 5719 5719 5723 5728 5731 5737 5740 5744 5750 5757 5763 5767 5770 5774 5777 5779 5780 5782
5709 5710 5713 5717 5724 5720 5721 5719 5723 5727 5731 5732 5735 5734 5733 5729 5734 5734 5731 5731 5729 5726 5723 5719 5717 5715 5714 5714 5714 5714 5713 5715 5719 5720 5725 5729 5732 5736 5741 5748 5753 5758 5762 5765 5767 5771 5772 5776 5777
5699 5700 5703 5708 5712 5711 5713 5713 5715 5716 5719 5726 5729 5729 5727 5724 5728 5729 5728 5728 5726 5724 5721 5718 5715 5712 5712 5711 5711 5712 5712 5713 5714 5716 5719 5725 5728 5733 5738 5745 5750 5753 5758 5760 5764 5765 5767 5769 5769
5688 5690 5694 5698 5702 5703 5705 5706 5707 5709 5716 5720 5722 5725 5724 5722 5724 5725 5723 5724 5722 5721 5719 5716 5713 5710 5709 5709 5708 5709 5710 5710 5710 5710 5714 5717 5723 5730 5736 5741 5745 5748 5751 5754 5756 5758 5760 5763 5762
5679 5682 5685 5687 5687 5690 5695 5692 5699 5701 5708 5711 5715 5718 5719 5717 5719 5721 5719 5720 5718 5718 5716 5714 5712 5710 5707 5706 5706 5707 5708 5710 5708 5709 5710 5714 5719 5726 5732 5736 5740 5743 5745 5747 5749 5750 5753 5755 5755
5671 5673 5675 5676 5678 5680 5688 5685 5689 5697 5699 5706 5708 5711 5713 5711 5714 5717 5716 5715 5715 5714 5714 5712 5710 5708 5706 5702 5702 5703 5706 5708 5707 5709 5711 5714 5718 5722 5726 5730 5735 5738 5741 5744 5744 5745 5748 5748 5749
5661 5663 5665 5669 5669 5670 5679 5682 5679 5690 5693 5694 5699 5701 5704 5706 5710 5713 5712 5710 5711 5710 5710 5709 5708 5706 5705 5704 5702 5702 5704 5707 5708 5708 5711 5713 5716 5719 5722 5724 5728 5731 5734 5736 5738 5740 5741 5743 5744
5649 5655 5657 5660 5659 5665 5673 5672 5672 5682 5686 5689 5692 5692 5698 5700 5704 5706 5707 5706 5707 5706 5706 5706 5705 5704 5703 5702 5702 5702 5703 5705 5706 5706 5707 5710 5715 5715 5717 5719 5722 5723 5726 5729 5731 5734 5737 5738 5739
5642 5648 5649 5651 5655 5661 5663 5664 5672 5672 5675 5683 5683 5687 5692 5695 5699 5701 5701 5702 5703 5703 5702 5703 5702 5702 5701 5699 5699 5698 5698 5699 5700 5702 5705 5708 5707 5709 5714 5716 5717 5720 5723 5724 5726 5729 5731 5733 5734
5636 5636 5644 5648 5650 5652 5656 5659 5666 5666 5670 5670 5674 5681 5686 5690 5693 5695 5697 5699 5698 5700 5698 5700 5700 5699 5698 5697 5697 5697 5698 5698 5698 5700 5701 5701 5704 5707 5710 5712 5714 5717 5719 5721 5723 5725 5726 5728 5730
5625 5635 5636 5639 5641 5643 5650 5652 5656 5659 5663 5667 5668 5674 5676 5682 5685 5690 5693 5695 5695 5695 5695 5696 5697 5697 5697 5696 5695 5695 5696 5697 5698 5700 5700 5702 5703 5705 5707 5711 5713 5715 5716 5717 5720 5723 5726 5726 5728
5619 5623 5628 5631 5635 5640 5645 5649 5649 5652 5656 5661 5663 5668 5672 5675 5677 5683 5687 5689 5691 5691 5691 5692 5693 5693 5694 5693 5693 5693 5694 5695 5696 5697 5698 5700 5702 5703 5705 5708 5711 5713 5713 5714 5717 5720 5720 5722 5722
5609 5617 5621 5623 5630 5633 5638 5645 5642 5644 5648 5655 5658 5658 5664 5666 5670 5675 5680 5683 5685 5686 5686 5687 5688 5689 5690 5690 5690 5690 5691 5693 5695 5696 5699 5700 5701 5702 5705 5706 5706 5707 5709 5711 5712 5714 5714 5715 5716